| time (UTC) | temp F | wind direction | speed knots | gust knots | rain 1hr in | rain 24hr in | rain mn in | humidity % | barometer mb |
| 20260505212105 | 51 | 265 | 0.9 | 3.5 | 0.00 | 0.00 | 0.00 | 77 | 1007.1 |
| 20260505211059 | 51 | 263 | 0.9 | 3.5 | 0.00 | 0.00 | 0.00 | 75 | 1007.1 |
| 20260505210050 | 51 | 284 | 0.9 | 3.5 | 0.00 | 0.00 | 0.00 | 76 | 1007.0 |
| 20260505205047 | 51 | 260 | 0.9 | 2.6 | 0.00 | 0.00 | 0.00 | 76 | 1007.1 |
| 20260505204057 | 51 | 293 | 0.9 | 2.6 | 0.00 | 0.00 | 0.00 | 78 | 1006.9 |
| 20260505203108 | 52 | 259 | 0.9 | 2.6 | 0.00 | 0.00 | 0.00 | 74 | 1007.0 |
| 20260505202116 | 52 | 263 | 0.0 | 0.9 | 0.00 | 0.00 | 0.00 | 76 | 1006.8 |
| 20260505201129 | 52 | 248 | 0.0 | 2.6 | 0.00 | 0.00 | 0.00 | 74 | 1006.6 |
| 20260505200117 | 52 | 264 | 0.0 | 0.0 | 0.00 | 0.00 | 0.00 | 76 | 1006.6 |
| 20260505195044 | 53 | 262 | 0.0 | 3.5 | 0.00 | 0.00 | 0.00 | 73 | 1006.8 |
| 20260505191844 | 57 | 234 | 1.7 | 5.2 | 0.00 | 0.00 | 0.00 | 57 | 1005.8 |
| 20260505185731 | 58 | 236 | 2.6 | 7.0 | 0.00 | 0.00 | 0.00 | 52 | 1005.5 |
| 20260505184709 | 59 | 87 | 1.7 | 7.8 | 0.00 | 0.00 | 0.00 | 52 | 1005.3 |
| 20260505183634 | 59 | 264 | 1.7 | 7.8 | 0.00 | 0.00 | 0.00 | 52 | 1005.2 |
| 20260505182608 | 60 | 260 | 1.7 | 4.3 | 0.00 | 0.00 | 0.00 | 53 | 1005.1 |
| 20260505181630 | 60 | 229 | 1.7 | 5.2 | 0.00 | 0.00 | 0.00 | 52 | 1004.8 |
| 20260505180620 | 60 | 288 | 1.7 | 6.1 | 0.00 | 0.00 | 0.00 | 53 | 1004.7 |
| 20260505175633 | 60 | 275 | 2.6 | 6.1 | 0.00 | 0.00 | 0.00 | 53 | 1004.4 |
| 20260505174643 | 61 | 256 | 2.6 | 6.1 | 0.00 | 0.00 | 0.00 | 53 | 1004.4 |
| 20260505173636 | 62 | 255 | 1.7 | 6.1 | 0.00 | 0.00 | 0.00 | 54 | 1004.1 |
| 20260505172608 | 62 | 277 | 0.9 | 4.3 | 0.00 | 0.00 | 0.00 | 57 | 1003.8 |
| 20260505171541 | 62 | 300 | 1.7 | 4.3 | 0.00 | 0.00 | 0.00 | 58 | 1003.8 |
| 20260505170541 | 62 | 305 | 1.7 | 6.1 | 0.00 | 0.00 | 0.00 | 58 | 1003.6 |
| 20260505165555 | 61 | 257 | 1.7 | 6.1 | 0.00 | 0.00 | 0.00 | 60 | 1003.4 |
| 20260505164543 | 61 | 298 | 1.7 | 4.3 | 0.00 | 0.00 | 0.00 | 62 | 1003.4 |
| 20260505163520 | 61 | 260 | 1.7 | 5.2 | 0.00 | 0.00 | 0.00 | 64 | 1003.4 |
| 20260505162529 | 60 | 172 | 1.7 | 5.2 | 0.00 | 0.00 | 0.00 | 67 | 1003.7 |
| 20260505161513 | 60 | 277 | 0.9 | 4.3 | 0.00 | 0.00 | 0.00 | 68 | 1003.8 |
| 20260505160440 | 60 | 240 | 0.9 | 3.5 | 0.00 | 0.00 | 0.00 | 71 | 1003.7 |
| 20260505151129 | 58 | 269 | 0.0 | 2.6 | 0.00 | 0.00 | 0.00 | 70 | 1003.1 |
| 20260505150132 | 58 | 254 | 0.0 | 2.6 | 0.00 | 0.00 | 0.00 | 69 | 1002.6 |
| 20260505140110 | 63 | 315 | 1.7 | 5.2 | 0.00 | 0.00 | 0.00 | 72 | 1001.4 |
| 20260505130132 | 63 | 234 | 0.0 | 3.5 | 0.00 | 0.00 | 0.00 | 73 | 1000.6 |
| 20260505122958 | 62 | 279 | 0.9 | 3.5 | 0.00 | 0.00 | 0.00 | 74 | 999.7 |
| 20260505122010 | 62 | 271 | 0.0 | 2.6 | 0.00 | 0.00 | 0.00 | 74 | 999.6 |
| 20260505120952 | 61 | 213 | 0.0 | 3.5 | 0.00 | 0.00 | 0.00 | 75 | 999.8 |
| 20260505114847 | 60 | 215 | 0.0 | 1.7 | 0.00 | 0.00 | 0.00 | 78 | 1000.0 |
| 20260505113824 | 59 | 256 | 0.0 | 0.0 | 0.00 | 0.00 | 0.00 | 79 | 999.8 |
| 20260505112807 | 59 | 219 | 0.0 | 0.9 | 0.00 | 0.00 | 0.00 | 79 | 999.6 |
| 20260505111754 | 59 | 212 | 0.0 | 0.9 | 0.00 | 0.00 | 0.00 | 79 | 999.5 |
| 20260505110809 | 59 | 253 | 0.9 | 2.6 | 0.00 | 0.00 | 0.00 | 79 | 999.5 |
| 20260505101734 | 59 | 252 | 0.9 | 6.1 | 0.00 | 0.00 | 0.00 | 79 | 998.8 |
| 20260505100728 | 59 | 207 | 0.9 | 6.1 | 0.00 | 0.00 | 0.00 | 79 | 998.7 |
| 20260505095751 | 59 | 219 | 0.0 | 2.6 | 0.00 | 0.00 | 0.00 | 78 | 998.6 |
| 20260505094806 | 59 | 182 | 0.0 | 1.7 | 0.00 | 0.00 | 0.00 | 77 | 998.4 |
| 20260505093751 | 60 | 174 | 0.0 | 2.6 | 0.00 | 0.00 | 0.00 | 76 | 998.3 |
| 20260505092804 | 60 | 228 | 0.0 | 2.6 | 0.00 | 0.00 | 0.00 | 76 | 998.4 |
| 20260505091812 | 61 | 252 | 0.0 | 1.7 | 0.00 | 0.00 | 0.00 | 76 | 998.5 |
| 20260505085615 | 61 | 224 | 0.0 | 1.7 | 0.00 | 0.00 | 0.00 | 75 | 998.4 |
| 20260505084612 | 62 | 165 | 0.0 | 0.9 | 0.00 | 0.00 | 0.00 | 73 | 998.2 |
| 20260505083547 | 62 | 209 | 0.9 | 3.5 | 0.00 | 0.00 | 0.00 | 72 | 998.3 |
| 20260505082609 | 63 | 249 | 0.9 | 4.3 | 0.00 | 0.00 | 0.00 | 72 | 998.5 |
| 20260505081534 | 63 | 200 | 1.7 | 7.0 | 0.00 | 0.00 | 0.00 | 72 | 998.5 |
| 20260505080546 | 63 | 184 | 1.7 | 7.0 | 0.00 | 0.00 | 0.00 | 71 | 998.8 |
| 20260505075611 | 63 | 220 | 0.9 | 5.2 | 0.00 | 0.00 | 0.00 | 71 | 998.8 |
| 20260505074550 | 63 | 228 | 0.9 | 4.3 | 0.00 | 0.00 | 0.00 | 71 | 998.8 |
| 20260505073607 | 63 | 180 | 0.0 | 4.3 | 0.00 | 0.00 | 0.00 | 70 | 998.9 |
| 20260505072622 | 63 | 261 | 0.9 | 6.1 | 0.00 | 0.00 | 0.00 | 70 | 998.9 |
| 20260505071623 | 63 | 95 | 1.7 | 6.1 | 0.00 | 0.00 | 0.00 | 69 | 998.8 |
| 20260505065519 | 63 | 228 | 0.9 | 4.3 | 0.00 | 0.00 | 0.00 | 69 | 998.8 |
| 20260505064501 | 63 | 181 | 0.9 | 7.0 | 0.00 | 0.00 | 0.00 | 70 | 998.9 |
| 20260505061234 | 60 | 185 | 0.0 | 0.9 | 0.00 | 0.00 | 0.00 | 74 | 999.3 |
| 20260505060220 | 60 | 212 | 0.0 | 1.7 | 0.00 | 0.00 | 0.00 | 74 | 999.4 |
| 20260505055222 | 60 | 260 | 0.0 | 0.0 | 0.00 | 0.00 | 0.00 | 74 | 999.6 |
| 20260505054218 | 60 | 219 | 0.0 | 0.0 | 0.00 | 0.00 | 0.00 | 74 | 999.5 |
| 20260505053234 | 60 | 219 | 0.0 | 0.9 | 0.00 | 0.00 | 0.00 | 74 | 999.5 |
| 20260505052250 | 60 | 226 | 0.0 | 0.9 | 0.00 | 0.00 | 0.00 | 74 | 999.4 |
| 20260505051311 | 60 | 171 | 0.0 | 0.0 | 0.00 | 0.00 | 0.00 | 74 | 999.4 |
| 20260505050333 | 61 | 51 | 0.0 | 0.9 | 0.00 | 0.00 | 0.00 | 72 | 999.5 |
| 20260505041341 | 62 | 217 | 0.0 | 5.2 | 0.00 | 0.00 | 0.00 | 70 | 999.5 |
| 20260505040353 | 62 | 215 | 1.7 | 5.2 | 0.00 | 0.00 | 0.00 | 69 | 999.5 |
| 20260505035409 | 62 | 181 | 0.9 | 4.3 | 0.00 | 0.00 | 0.00 | 68 | 999.6 |
| 20260505034421 | 62 | 160 | 0.9 | 6.1 | 0.00 | 0.00 | 0.00 | 67 | 999.7 |
| 20260505033434 | 62 | 254 | 0.9 | 6.1 | 0.00 | 0.00 | 0.00 | 66 | 999.8 |
| 20260505032413 | 62 | 219 | 0.0 | 5.2 | 0.00 | 0.00 | 0.00 | 64 | 999.9 |
| 20260505031423 | 62 | 236 | 0.9 | 5.2 | 0.00 | 0.00 | 0.00 | 62 | 1000.0 |
| 20260505030413 | 62 | 254 | 0.9 | 7.8 | 0.00 | 0.00 | 0.00 | 60 | 1000.1 |
| 20260505024239 | 63 | 246 | 0.0 | 5.2 | 0.00 | 0.00 | 0.00 | 56 | 1000.4 |
| 20260505023245 | 63 | 252 | 0.9 | 6.1 | 0.00 | 0.00 | 0.00 | 54 | 1000.4 |
| 20260505022245 | 64 | 203 | 0.9 | 6.1 | 0.00 | 0.00 | 0.00 | 51 | 1000.7 |
| 20260505020127 | 65 | 203 | 0.0 | 2.6 | 0.00 | 0.00 | 0.00 | 46 | 1000.7 |
| 20260505015149 | 65 | 210 | 0.0 | 2.6 | 0.00 | 0.00 | 0.00 | 44 | 1000.6 |
| 20260505014157 | 66 | 252 | 0.9 | 3.5 | 0.00 | 0.00 | 0.00 | 43 | 1000.5 |
| 20260505012006 | 67 | 174 | 0.9 | 4.3 | 0.00 | 0.00 | 0.00 | 39 | 1000.4 |
| 20260505005911 | 68 | 210 | 0.9 | 6.1 | 0.00 | 0.00 | 0.00 | 37 | 1000.4 |
| 20260505004845 | 69 | 137 | 1.7 | 8.7 | 0.00 | 0.00 | 0.00 | 36 | 1000.2 |
| 20260505003854 | 69 | 225 | 1.7 | 8.7 | 0.00 | 0.00 | 0.00 | 36 | 1000.3 |
| 20260505002851 | 69 | 169 | 1.7 | 7.8 | 0.00 | 0.00 | 0.00 | 36 | 1000.3 |
| 20260505001907 | 69 | 218 | 1.7 | 7.8 | 0.00 | 0.00 | 0.00 | 36 | 1000.4 |
| 20260505000931 | 70 | 184 | 1.7 | 6.1 | 0.00 | 0.00 | 0.00 | 36 | 1000.5 |
| 20260504234715 | 70 | 187 | 2.6 | 7.0 | 0.00 | 0.00 | 0.00 | 36 | 1000.7 |
| 20260504233722 | 70 | 227 | 1.7 | 8.7 | 0.00 | 0.00 | 0.00 | 36 | 1000.8 |
| 20260504232711 | 71 | 186 | 2.6 | 10.4 | 0.00 | 0.00 | 0.00 | 36 | 1000.8 |
| 20260504231701 | 71 | 219 | 2.6 | 10.4 | 0.00 | 0.00 | 0.00 | 36 | 1000.9 |
| 20260504230658 | 71 | 215 | 0.9 | 8.7 | 0.00 | 0.00 | 0.00 | 36 | 1000.9 |
| 20260504225630 | 71 | 235 | 1.7 | 9.6 | 0.00 | 0.00 | 0.00 | 36 | 1001.0 |
| 20260504224630 | 72 | 241 | 2.6 | 9.6 | 0.00 | 0.00 | 0.00 | 36 | 1000.9 |
| 20260504223614 | 72 | 174 | 2.6 | 11.3 | 0.00 | 0.00 | 0.00 | 36 | 1000.8 |
| 20260504222554 | 72 | 182 | 3.5 | 11.3 | 0.00 | 0.00 | 0.00 | 36 | 1001.0 |
| 20260504221613 | 72 | 230 | 2.6 | 11.3 | 0.00 | 0.00 | 0.00 | 36 | 1001.0 |
| 20260504220622 | 72 | 280 | 2.6 | 13.9 | 0.00 | 0.00 | 0.00 | 37 | 1001.0 |
| 20260504215623 | 72 | 248 | 3.5 | 13.9 | 0.00 | 0.00 | 0.00 | 36 | 1001.1 |
| 20260504214554 | 73 | 272 | 3.5 | 10.4 | 0.00 | 0.00 | 0.00 | 35 | 1000.9 |
| 20260504213519 | 74 | 219 | 2.6 | 11.3 | 0.00 | 0.00 | 0.00 | 35 | 1000.9 |
| 20260504212528 | 74 | 245 | 3.5 | 12.2 | 0.00 | 0.00 | 0.00 | 34 | 1000.6 |